Location: Wien
(48.2082°N, 16.3738°E)
Time: 10:28:19
(UTC+02:00)

Transit 4A - Pass Details

Date: 28 February 2024
Orbit: 871 x 971 km, 66.8° (Epoch: 24 April)

Event Time Altitude Azimuth Distance (km) Brightness Sun altitude
Exits shadow 05:27:30 - 317° (NW) 3,252 10.4 -12.7°
Reaches altitude 10° 05:30:40 10° 340° (NNW) 2,575 10.0 -12.2°
Maximum altitude 05:33:14 13° 6° (N) 2,366 10.1 -11.7°
Drops below altitude 10° 05:35:48 10° 32° (NNE) 2,551 10.7 -11.3°
Sets 05:39:57 0° 60° (ENE) 3,475 12.0 -10.6°
